Year,Month,Day,Hour,Minute,Value (Times are PST for temperature in C)
2007,07,05,00,00,18.20
2007,07,05,00,01,18.20
2007,07,05,00,02,18.20
2007,07,05,00,03,18.20
2007,07,05,00,04,18.10
2007,07,05,00,05,18.10
2007,07,05,00,06,18.10
2007,07,05,00,07,18.10
2007,07,05,00,08,18.00
2007,07,05,00,09,18.00
2007,07,05,00,10,18.00
2007,07,05,00,11,17.90
2007,07,05,00,12,17.90
2007,07,05,00,13,17.90
2007,07,05,00,14,17.90
2007,07,05,00,15,17.80
2007,07,05,00,16,17.80
2007,07,05,00,17,17.80
2007,07,05,00,18,17.70
2007,07,05,00,19,17.70
2007,07,05,00,20,17.60
2007,07,05,00,21,17.60
2007,07,05,00,22,17.50
2007,07,05,00,23,17.50
2007,07,05,00,24,17.50
2007,07,05,00,25,17.40
2007,07,05,00,26,17.40
2007,07,05,00,27,17.40
2007,07,05,00,28,17.40
2007,07,05,00,29,17.30
2007,07,05,00,30,17.30
2007,07,05,00,31,17.30
2007,07,05,00,32,17.30
2007,07,05,00,33,17.20
2007,07,05,00,34,17.20
2007,07,05,00,35,17.20
2007,07,05,00,36,17.20
2007,07,05,00,37,17.20
2007,07,05,00,38,17.20
2007,07,05,00,39,17.20
2007,07,05,00,40,17.20
2007,07,05,00,41,17.20
2007,07,05,00,42,17.20
2007,07,05,00,43,17.20
2007,07,05,00,44,17.20
2007,07,05,00,45,17.20
2007,07,05,00,46,17.20
2007,07,05,00,47,17.20
2007,07,05,00,48,17.30
2007,07,05,00,49,17.30
2007,07,05,00,50,17.30
2007,07,05,00,51,17.30
2007,07,05,00,52,17.30
2007,07,05,00,53,17.30
2007,07,05,00,54,17.30
2007,07,05,00,55,17.30
2007,07,05,00,56,17.30
2007,07,05,00,57,17.30
2007,07,05,00,58,17.30
2007,07,05,00,59,17.30
2007,07,05,01,00,17.30
2007,07,05,01,01,17.30
2007,07,05,01,02,17.30
2007,07,05,01,03,17.30
2007,07,05,01,04,17.30
2007,07,05,01,05,17.30
2007,07,05,01,06,17.30
2007,07,05,01,07,17.30
2007,07,05,01,08,17.30
2007,07,05,01,09,17.30
2007,07,05,01,10,17.30
2007,07,05,01,11,17.30
2007,07,05,01,12,17.20
2007,07,05,01,13,17.20
2007,07,05,01,14,17.20
2007,07,05,01,15,17.20
2007,07,05,01,16,17.10
2007,07,05,01,17,17.10
2007,07,05,01,18,17.00
2007,07,05,01,19,17.00
2007,07,05,01,20,16.90
2007,07,05,01,21,16.90
2007,07,05,01,22,16.80
2007,07,05,01,23,16.80
2007,07,05,01,24,16.70
2007,07,05,01,25,16.70
2007,07,05,01,26,16.70
2007,07,05,01,27,16.60
2007,07,05,01,28,16.60
2007,07,05,01,29,16.60
2007,07,05,01,30,16.50
2007,07,05,01,31,16.50
2007,07,05,01,32,16.40
2007,07,05,01,33,16.40
2007,07,05,01,34,16.40
2007,07,05,01,35,16.40
2007,07,05,01,36,16.30
2007,07,05,01,37,16.30
2007,07,05,01,38,16.30
2007,07,05,01,39,16.30
2007,07,05,01,40,16.30
2007,07,05,01,41,16.20
2007,07,05,01,42,16.20
2007,07,05,01,43,16.20
2007,07,05,01,44,16.20
2007,07,05,01,45,16.20
2007,07,05,01,46,16.10
2007,07,05,01,47,16.10
2007,07,05,01,48,16.00
2007,07,05,01,49,16.00
2007,07,05,01,50,15.90
2007,07,05,01,51,15.90
2007,07,05,01,52,15.90
2007,07,05,01,53,15.80
2007,07,05,01,54,15.80
2007,07,05,01,55,15.80
2007,07,05,01,56,15.80
2007,07,05,01,57,15.70
2007,07,05,01,58,15.70
2007,07,05,01,59,15.70
2007,07,05,02,00,15.60
2007,07,05,02,01,15.60
2007,07,05,02,02,15.60
2007,07,05,02,03,15.60
2007,07,05,02,04,15.50
2007,07,05,02,05,15.50
2007,07,05,02,06,15.50
2007,07,05,02,07,15.50
2007,07,05,02,08,15.50
2007,07,05,02,09,15.40
2007,07,05,02,10,15.40
2007,07,05,02,11,15.40
2007,07,05,02,12,15.40
2007,07,05,02,13,15.40
2007,07,05,02,14,15.40
2007,07,05,02,15,15.40
2007,07,05,02,16,15.40
2007,07,05,02,17,15.40
2007,07,05,02,18,15.40
2007,07,05,02,19,15.40
2007,07,05,02,20,15.50
2007,07,05,02,21,15.50
2007,07,05,02,22,15.50
2007,07,05,02,23,15.50
2007,07,05,02,24,15.40
2007,07,05,02,25,15.40
2007,07,05,02,26,15.40
2007,07,05,02,27,15.40
2007,07,05,02,28,15.30
2007,07,05,02,29,15.30
2007,07,05,02,30,15.30
2007,07,05,02,31,15.30
2007,07,05,02,32,15.30
2007,07,05,02,33,15.30
2007,07,05,02,34,15.20
2007,07,05,02,35,15.20
2007,07,05,02,36,15.20
2007,07,05,02,37,15.20
2007,07,05,02,38,15.20
2007,07,05,02,39,15.20
2007,07,05,02,40,15.20
2007,07,05,02,41,15.20
2007,07,05,02,42,15.20
2007,07,05,02,43,15.20
2007,07,05,02,44,15.20
2007,07,05,02,45,15.20
2007,07,05,02,46,15.20
2007,07,05,02,47,15.20
2007,07,05,02,48,15.10
2007,07,05,02,49,15.00
2007,07,05,02,50,15.00
2007,07,05,02,51,15.00
2007,07,05,02,52,15.00
2007,07,05,02,53,15.00
2007,07,05,02,54,15.00
2007,07,05,02,55,15.00
2007,07,05,02,56,15.00
2007,07,05,02,57,15.00
2007,07,05,02,58,15.00
2007,07,05,02,59,15.00
2007,07,05,03,00,15.00
2007,07,05,03,01,15.00
2007,07,05,03,02,15.00
2007,07,05,03,03,15.00
2007,07,05,03,04,15.00
2007,07,05,03,05,15.00
2007,07,05,03,06,14.90
2007,07,05,03,07,14.80
2007,07,05,03,08,14.80
2007,07,05,03,09,14.80
2007,07,05,03,10,14.80
2007,07,05,03,11,14.80
2007,07,05,03,12,14.80
2007,07,05,03,13,14.80
2007,07,05,03,14,14.70
2007,07,05,03,15,14.70
2007,07,05,03,16,14.70
2007,07,05,03,17,14.70
2007,07,05,03,18,14.70
2007,07,05,03,19,14.70
2007,07,05,03,20,14.70
2007,07,05,03,21,14.70
2007,07,05,03,22,14.70
2007,07,05,03,23,14.70
2007,07,05,03,24,14.70
2007,07,05,03,25,14.70
2007,07,05,03,26,14.70
2007,07,05,03,27,14.70
2007,07,05,03,28,14.70
2007,07,05,03,29,14.70
2007,07,05,03,30,14.70
2007,07,05,03,31,14.70
2007,07,05,03,32,14.70
2007,07,05,03,33,14.70
2007,07,05,03,34,14.70
2007,07,05,03,35,14.70
2007,07,05,03,36,14.70
2007,07,05,03,37,14.70
2007,07,05,03,38,14.70
2007,07,05,03,39,14.60
2007,07,05,03,40,14.60
2007,07,05,03,41,14.60
2007,07,05,03,42,14.60
2007,07,05,03,43,14.50
2007,07,05,03,44,14.50
2007,07,05,03,45,14.50
2007,07,05,03,46,14.50
2007,07,05,03,47,14.40
2007,07,05,03,48,14.40
2007,07,05,03,49,14.40
2007,07,05,03,50,14.40
2007,07,05,03,51,14.40
2007,07,05,03,52,14.40
2007,07,05,03,53,14.40
2007,07,05,03,54,14.40
2007,07,05,03,55,14.40
2007,07,05,03,56,14.40
2007,07,05,03,57,14.40
2007,07,05,03,58,14.40
2007,07,05,03,59,14.40
2007,07,05,04,00,14.40
2007,07,05,04,01,14.30
2007,07,05,04,02,14.30
2007,07,05,04,03,14.30
2007,07,05,04,04,14.30
2007,07,05,04,05,14.30
2007,07,05,04,06,14.30
2007,07,05,04,07,14.30
2007,07,05,04,08,14.30
2007,07,05,04,09,14.30
2007,07,05,04,10,14.30
2007,07,05,04,11,14.30
2007,07,05,04,12,14.20
2007,07,05,04,13,14.20
2007,07,05,04,14,14.20
2007,07,05,04,15,14.20
2007,07,05,04,16,14.20
2007,07,05,04,17,14.20
2007,07,05,04,18,14.20
2007,07,05,04,19,14.20
2007,07,05,04,20,14.20
2007,07,05,04,21,14.20
2007,07,05,04,22,14.20
2007,07,05,04,23,14.20
2007,07,05,04,24,14.20
2007,07,05,04,25,14.20
2007,07,05,04,26,14.20
2007,07,05,04,27,14.20
2007,07,05,04,28,14.20
2007,07,05,04,29,14.20
2007,07,05,04,30,14.20
2007,07,05,04,31,14.20
2007,07,05,04,32,14.20
2007,07,05,04,33,14.20
2007,07,05,04,34,14.20
2007,07,05,04,35,14.20
2007,07,05,04,36,14.20
2007,07,05,04,37,14.10
2007,07,05,04,38,14.10
2007,07,05,04,39,14.10
2007,07,05,04,40,14.10
2007,07,05,04,41,14.10
2007,07,05,04,42,14.10
2007,07,05,04,43,14.10
2007,07,05,04,44,14.10
2007,07,05,04,45,14.10
2007,07,05,04,46,14.10
2007,07,05,04,47,14.10
2007,07,05,04,48,14.10
2007,07,05,04,49,14.10
2007,07,05,04,50,14.00
2007,07,05,04,51,14.10
2007,07,05,04,52,14.00
2007,07,05,04,53,14.00
2007,07,05,04,54,14.00
2007,07,05,04,55,14.00
2007,07,05,04,56,14.00
2007,07,05,04,57,14.00
2007,07,05,04,58,13.90
2007,07,05,04,59,13.90
2007,07,05,05,00,13.90
2007,07,05,05,01,13.90
2007,07,05,05,02,13.90
2007,07,05,05,03,13.90
2007,07,05,05,04,13.90
2007,07,05,05,05,13.90
2007,07,05,05,06,13.90
2007,07,05,05,07,13.90
2007,07,05,05,08,13.90
2007,07,05,05,09,13.90
2007,07,05,05,10,13.90
2007,07,05,05,11,13.90
2007,07,05,05,12,13.90
2007,07,05,05,13,13.80
2007,07,05,05,14,13.80
2007,07,05,05,15,13.80
2007,07,05,05,16,13.80
2007,07,05,05,17,13.80
2007,07,05,05,18,13.80
2007,07,05,05,19,13.80
2007,07,05,05,20,13.80
2007,07,05,05,21,13.80
2007,07,05,05,22,13.80
2007,07,05,05,23,13.80
2007,07,05,05,24,13.70
2007,07,05,05,25,13.70
2007,07,05,05,26,13.70
2007,07,05,05,27,13.70
2007,07,05,05,28,13.70
2007,07,05,05,29,13.70
2007,07,05,05,30,13.70
2007,07,05,05,31,13.70
2007,07,05,05,32,13.70
2007,07,05,05,33,13.70
2007,07,05,05,34,13.70
2007,07,05,05,35,13.70
2007,07,05,05,36,13.70
2007,07,05,05,37,13.70
2007,07,05,05,38,13.70
2007,07,05,05,39,13.70
2007,07,05,05,40,13.70
2007,07,05,05,41,13.70
2007,07,05,05,42,13.70
2007,07,05,05,43,13.70
2007,07,05,05,44,13.70
2007,07,05,05,45,13.70
2007,07,05,05,46,13.70
2007,07,05,05,47,13.70
2007,07,05,05,48,13.70
2007,07,05,05,49,13.70
2007,07,05,05,50,13.70
2007,07,05,05,51,13.70
2007,07,05,05,52,13.70
2007,07,05,05,53,13.70
2007,07,05,05,54,13.70
2007,07,05,05,55,13.70
2007,07,05,05,56,13.70
2007,07,05,05,57,13.80
2007,07,05,05,58,13.80
2007,07,05,05,59,13.80
2007,07,05,06,00,13.80
2007,07,05,06,01,13.90
2007,07,05,06,02,13.90
2007,07,05,06,03,14.00
2007,07,05,06,04,14.00
2007,07,05,06,05,14.10
2007,07,05,06,06,14.10
2007,07,05,06,07,14.20
2007,07,05,06,08,14.20
2007,07,05,06,09,14.20
2007,07,05,06,10,14.20
2007,07,05,06,11,14.30
2007,07,05,06,12,14.30
2007,07,05,06,13,14.30
2007,07,05,06,14,14.30
2007,07,05,06,15,14.30
2007,07,05,06,16,14.30
2007,07,05,06,17,14.30
2007,07,05,06,18,14.30
2007,07,05,06,19,14.30
2007,07,05,06,20,14.30
2007,07,05,06,21,14.30
2007,07,05,06,22,14.30
2007,07,05,06,23,14.20
2007,07,05,06,24,14.20
2007,07,05,06,25,14.20
2007,07,05,06,26,14.30
2007,07,05,06,27,14.30
2007,07,05,06,28,14.30
2007,07,05,06,29,14.30
2007,07,05,06,30,14.30
2007,07,05,06,31,14.30
2007,07,05,06,32,14.30
2007,07,05,06,33,14.30
2007,07,05,06,34,14.30
2007,07,05,06,35,14.40
2007,07,05,06,36,14.40
2007,07,05,06,37,14.40
2007,07,05,06,38,14.40
2007,07,05,06,39,14.40
2007,07,05,06,40,14.50
2007,07,05,06,41,14.50
2007,07,05,06,42,14.50
2007,07,05,06,43,14.60
2007,07,05,06,44,14.60
2007,07,05,06,45,14.70
2007,07,05,06,46,14.70
2007,07,05,06,47,14.70
2007,07,05,06,48,14.80
2007,07,05,06,49,14.90
2007,07,05,06,50,15.00
2007,07,05,06,51,15.00
2007,07,05,06,52,15.00
2007,07,05,06,53,15.00
2007,07,05,06,54,15.10
2007,07,05,06,55,15.20
2007,07,05,06,56,15.20
2007,07,05,06,57,15.30
2007,07,05,06,58,15.40
2007,07,05,06,59,15.40
2007,07,05,07,00,15.40
2007,07,05,07,01,15.40
2007,07,05,07,02,15.40
2007,07,05,07,03,15.40
2007,07,05,07,04,15.50
2007,07,05,07,05,15.50
2007,07,05,07,06,15.50
2007,07,05,07,07,15.60
2007,07,05,07,08,15.60
2007,07,05,07,09,15.70
2007,07,05,07,10,15.70
2007,07,05,07,11,15.80
2007,07,05,07,12,15.80
2007,07,05,07,13,15.80
2007,07,05,07,14,15.90
2007,07,05,07,15,15.90
2007,07,05,07,16,16.00
2007,07,05,07,17,16.00
2007,07,05,07,18,16.10
2007,07,05,07,19,16.10
2007,07,05,07,20,16.20
2007,07,05,07,21,16.20
2007,07,05,07,22,16.20
2007,07,05,07,23,16.20
2007,07,05,07,24,16.20
2007,07,05,07,25,16.30
2007,07,05,07,26,16.30
2007,07,05,07,27,16.30
2007,07,05,07,28,16.30
2007,07,05,07,29,16.30
2007,07,05,07,30,16.30
2007,07,05,07,31,16.30
2007,07,05,07,32,16.30
2007,07,05,07,33,16.30
2007,07,05,07,34,16.30
2007,07,05,07,35,16.30
2007,07,05,07,36,16.30
2007,07,05,07,37,16.30
2007,07,05,07,38,16.30
2007,07,05,07,39,16.30
2007,07,05,07,40,16.30
2007,07,05,07,41,16.40
2007,07,05,07,42,16.40
2007,07,05,07,43,16.50
2007,07,05,07,44,16.50
2007,07,05,07,45,16.60
2007,07,05,07,46,16.60
2007,07,05,07,47,16.60
2007,07,05,07,48,16.70
2007,07,05,07,49,16.70
2007,07,05,07,50,16.70
2007,07,05,07,51,16.80
2007,07,05,07,52,16.90
2007,07,05,07,53,17.00
2007,07,05,07,54,17.00
2007,07,05,07,55,17.10
2007,07,05,07,56,17.10
2007,07,05,07,57,17.10
2007,07,05,07,58,17.10
2007,07,05,07,59,17.10
2007,07,05,08,00,17.10
2007,07,05,08,01,17.10
2007,07,05,08,02,17.20
2007,07,05,08,03,17.20
2007,07,05,08,04,17.30
2007,07,05,08,05,17.30
2007,07,05,08,06,17.30
2007,07,05,08,07,17.30
2007,07,05,08,08,17.40
2007,07,05,08,09,17.50
2007,07,05,08,10,17.50
2007,07,05,08,11,17.60
2007,07,05,08,12,17.60
2007,07,05,08,13,17.60
2007,07,05,08,14,17.70
2007,07,05,08,15,17.60
2007,07,05,08,16,17.70
2007,07,05,08,17,17.70
2007,07,05,08,18,17.70
2007,07,05,08,19,17.70
2007,07,05,08,20,17.80
2007,07,05,08,21,17.80
2007,07,05,08,22,17.90
2007,07,05,08,23,18.00
2007,07,05,08,24,18.10
2007,07,05,08,25,18.20
2007,07,05,08,26,18.30
2007,07,05,08,27,18.30
2007,07,05,08,28,18.30
2007,07,05,08,29,18.40
2007,07,05,08,30,18.40
2007,07,05,08,31,18.50
2007,07,05,08,32,18.60
2007,07,05,08,33,18.60
2007,07,05,08,34,18.70
2007,07,05,08,35,18.70
2007,07,05,08,36,18.70
2007,07,05,08,37,18.70
2007,07,05,08,38,18.70
2007,07,05,08,39,18.70
2007,07,05,08,40,18.70
2007,07,05,08,41,18.70
2007,07,05,08,42,18.80
2007,07,05,08,43,18.80
2007,07,05,08,44,18.90
2007,07,05,08,45,19.00
2007,07,05,08,46,19.10
2007,07,05,08,47,19.20
2007,07,05,08,48,19.30
2007,07,05,08,49,19.40
2007,07,05,08,50,19.40
2007,07,05,08,51,19.40
2007,07,05,08,52,19.50
2007,07,05,08,53,19.60
2007,07,05,08,54,19.70
2007,07,05,08,55,19.80
2007,07,05,08,56,19.80
2007,07,05,08,57,19.80
2007,07,05,08,58,19.90
2007,07,05,08,59,19.90
2007,07,05,09,00,20.00
2007,07,05,09,01,20.00
2007,07,05,09,02,20.00
2007,07,05,09,03,20.00
2007,07,05,09,04,20.00
2007,07,05,09,05,20.00
2007,07,05,09,06,20.00
2007,07,05,09,07,20.10
2007,07,05,09,08,20.20
2007,07,05,09,09,20.30
2007,07,05,09,10,20.40
2007,07,05,09,11,20.50
2007,07,05,09,12,20.60
2007,07,05,09,13,20.60
2007,07,05,09,14,20.60
2007,07,05,09,15,20.70
2007,07,05,09,16,20.70
2007,07,05,09,17,20.80
2007,07,05,09,18,20.80
2007,07,05,09,19,20.90
2007,07,05,09,20,21.00
2007,07,05,09,21,21.00
2007,07,05,09,22,21.10
2007,07,05,09,23,21.10
2007,07,05,09,24,21.10
2007,07,05,09,25,21.00
2007,07,05,09,26,21.00
2007,07,05,09,27,21.10
2007,07,05,09,28,21.10
2007,07,05,09,29,21.20
2007,07,05,09,30,21.30
2007,07,05,09,31,21.30
2007,07,05,09,32,21.30
2007,07,05,09,33,21.20
2007,07,05,09,34,21.10
2007,07,05,09,35,21.10
2007,07,05,09,36,21.00
2007,07,05,09,37,20.90
2007,07,05,09,38,20.90
2007,07,05,09,39,20.80
2007,07,05,09,40,20.80
2007,07,05,09,41,20.90
2007,07,05,09,42,21.00
2007,07,05,09,43,21.00
2007,07,05,09,44,21.10
2007,07,05,09,45,21.10
2007,07,05,09,46,21.10
2007,07,05,09,47,21.20
2007,07,05,09,48,21.20
2007,07,05,09,49,21.20
2007,07,05,09,50,21.20
2007,07,05,09,51,21.20
2007,07,05,09,52,21.20
2007,07,05,09,53,21.20
2007,07,05,09,54,21.20
2007,07,05,09,55,21.30
2007,07,05,09,56,21.30
2007,07,05,09,57,21.30
2007,07,05,09,58,21.30
2007,07,05,09,59,21.30
2007,07,05,10,00,21.40
2007,07,05,10,01,21.30
2007,07,05,10,02,21.30
2007,07,05,10,03,21.20
2007,07,05,10,04,21.20
2007,07,05,10,05,21.10
2007,07,05,10,06,21.10
2007,07,05,10,07,21.10
2007,07,05,10,08,21.10
2007,07,05,10,09,21.10
2007,07,05,10,10,21.20
2007,07,05,10,11,21.30
2007,07,05,10,12,21.30
2007,07,05,10,13,21.30
2007,07,05,10,14,21.40
2007,07,05,10,15,21.50
2007,07,05,10,16,21.60
2007,07,05,10,17,21.70
2007,07,05,10,18,21.80
2007,07,05,10,19,21.80
2007,07,05,10,20,21.70
2007,07,05,10,21,21.60
2007,07,05,10,22,21.50
2007,07,05,10,23,21.40
2007,07,05,10,24,21.30
2007,07,05,10,25,21.20
2007,07,05,10,26,21.20
2007,07,05,10,27,21.30
2007,07,05,10,28,21.40
2007,07,05,10,29,21.50
2007,07,05,10,30,21.60
2007,07,05,10,31,21.60
2007,07,05,10,32,21.60
2007,07,05,10,33,21.70
2007,07,05,10,34,21.50
2007,07,05,10,35,21.30
2007,07,05,10,36,21.20
2007,07,05,10,37,21.10
2007,07,05,10,38,21.10
2007,07,05,10,39,21.10
2007,07,05,10,40,21.00
2007,07,05,10,41,20.90
2007,07,05,10,42,20.90
2007,07,05,10,43,20.80
2007,07,05,10,44,20.70
2007,07,05,10,45,20.70
2007,07,05,10,46,20.70
2007,07,05,10,47,20.70
2007,07,05,10,48,20.70
2007,07,05,10,49,20.60
2007,07,05,10,50,20.50
2007,07,05,10,51,20.40
2007,07,05,10,52,20.40
2007,07,05,10,53,20.40
2007,07,05,10,54,20.40
2007,07,05,10,55,20.50
2007,07,05,10,56,20.50
2007,07,05,10,57,20.40
2007,07,05,10,58,20.40
2007,07,05,10,59,20.30
2007,07,05,11,00,20.30
2007,07,05,11,01,20.30
2007,07,05,11,02,20.40
2007,07,05,11,03,20.50
2007,07,05,11,04,20.50
2007,07,05,11,05,20.40
2007,07,05,11,06,20.40
2007,07,05,11,07,20.30
2007,07,05,11,08,20.30
2007,07,05,11,09,20.40
2007,07,05,11,10,20.30
2007,07,05,11,11,20.40
2007,07,05,11,12,20.50
2007,07,05,11,13,20.60
2007,07,05,11,14,20.60
2007,07,05,11,15,20.50
2007,07,05,11,16,20.40
2007,07,05,11,17,20.40
2007,07,05,11,18,20.30
2007,07,05,11,19,20.40
2007,07,05,11,20,20.50
2007,07,05,11,21,20.60
2007,07,05,11,22,20.60
2007,07,05,11,23,20.60
2007,07,05,11,24,20.50
2007,07,05,11,25,20.40
2007,07,05,11,26,20.30
2007,07,05,11,27,20.40
2007,07,05,11,28,20.60
2007,07,05,11,29,20.70
2007,07,05,11,30,20.90
2007,07,05,11,31,20.90
2007,07,05,11,32,20.90
2007,07,05,11,33,20.80
2007,07,05,11,34,20.80
2007,07,05,11,35,20.70
2007,07,05,11,36,20.60
2007,07,05,11,37,20.50
2007,07,05,11,38,20.40
2007,07,05,11,39,20.40
2007,07,05,11,40,20.50
2007,07,05,11,41,20.50
2007,07,05,11,42,20.50
2007,07,05,11,43,20.50
2007,07,05,11,44,20.70
2007,07,05,11,45,20.80
2007,07,05,11,46,20.80
2007,07,05,11,47,20.70
2007,07,05,11,48,20.70
2007,07,05,11,49,20.70
2007,07,05,11,50,20.70
2007,07,05,11,51,20.80
2007,07,05,11,52,20.90
2007,07,05,11,53,20.90
2007,07,05,11,54,21.10
2007,07,05,11,55,21.20
2007,07,05,11,56,21.20
2007,07,05,11,57,21.20
2007,07,05,11,58,21.20
2007,07,05,11,59,21.20
2007,07,05,12,00,21.20
2007,07,05,12,01,21.20
2007,07,05,12,02,21.20
2007,07,05,12,03,21.30
2007,07,05,12,04,21.40
2007,07,05,12,05,21.40
2007,07,05,12,06,21.50
2007,07,05,12,07,21.40
2007,07,05,12,08,21.30
2007,07,05,12,09,21.30
2007,07,05,12,10,21.30
2007,07,05,12,11,21.40
2007,07,05,12,12,21.40
2007,07,05,12,13,21.40
2007,07,05,12,14,21.40
2007,07,05,12,15,21.40
2007,07,05,12,16,21.40
2007,07,05,12,17,21.40
2007,07,05,12,18,21.30
2007,07,05,12,19,21.30
2007,07,05,12,20,21.30
2007,07,05,12,21,21.50
2007,07,05,12,22,21.60
2007,07,05,12,23,21.60
2007,07,05,12,24,21.60
2007,07,05,12,25,21.70
2007,07,05,12,26,21.90
2007,07,05,12,27,21.90
2007,07,05,12,28,21.90
2007,07,05,12,29,21.90
2007,07,05,12,30,21.90
2007,07,05,12,31,21.90
2007,07,05,12,32,21.80
2007,07,05,12,33,21.80
2007,07,05,12,34,21.80
2007,07,05,12,35,21.80
2007,07,05,12,36,21.90
2007,07,05,12,37,22.00
2007,07,05,12,38,22.10
2007,07,05,12,39,22.10
2007,07,05,12,40,22.00
2007,07,05,12,41,21.90
2007,07,05,12,42,21.80
2007,07,05,12,43,21.80
2007,07,05,12,44,21.70
2007,07,05,12,45,21.60
2007,07,05,12,46,21.60
2007,07,05,12,47,21.60
2007,07,05,12,48,21.70
2007,07,05,12,49,21.70
2007,07,05,12,50,21.70
2007,07,05,12,51,21.80
2007,07,05,12,52,21.80
2007,07,05,12,53,21.80
2007,07,05,12,54,21.70
2007,07,05,12,55,21.70
2007,07,05,12,56,21.60
2007,07,05,12,57,21.60
2007,07,05,12,58,21.60
2007,07,05,12,59,21.60
2007,07,05,13,00,21.60
2007,07,05,13,01,21.80
2007,07,05,13,02,22.10
2007,07,05,13,03,22.20
2007,07,05,13,04,22.20
2007,07,05,13,05,22.10
2007,07,05,13,06,22.10
2007,07,05,13,07,22.20
2007,07,05,13,08,22.20
2007,07,05,13,09,22.10
2007,07,05,13,10,21.90
2007,07,05,13,11,21.80
2007,07,05,13,12,21.80
2007,07,05,13,13,21.70
2007,07,05,13,14,21.60
2007,07,05,13,15,21.60
2007,07,05,13,16,21.60
2007,07,05,13,17,21.50
2007,07,05,13,18,21.50
2007,07,05,13,19,21.50
2007,07,05,13,20,21.60
2007,07,05,13,21,21.50
2007,07,05,13,22,21.40
2007,07,05,13,23,21.30
2007,07,05,13,24,21.20
2007,07,05,13,25,21.20
2007,07,05,13,26,21.20
2007,07,05,13,27,21.30
2007,07,05,13,28,21.50
2007,07,05,13,29,21.60
2007,07,05,13,30,21.70
2007,07,05,13,31,21.70
2007,07,05,13,32,21.80
2007,07,05,13,33,21.80
2007,07,05,13,34,21.80
2007,07,05,13,35,21.80
2007,07,05,13,36,21.80
2007,07,05,13,37,21.80
2007,07,05,13,38,21.80
2007,07,05,13,39,21.90
2007,07,05,13,40,22.10
2007,07,05,13,41,22.30
2007,07,05,13,42,22.40
2007,07,05,13,43,22.50
2007,07,05,13,44,22.60
2007,07,05,13,45,22.60
2007,07,05,13,46,22.60
2007,07,05,13,47,22.60
2007,07,05,13,48,22.60
2007,07,05,13,49,22.60
2007,07,05,13,50,22.60
2007,07,05,13,51,22.60
2007,07,05,13,52,22.60
2007,07,05,13,53,22.60
2007,07,05,13,54,22.60
2007,07,05,13,55,22.70
2007,07,05,13,56,22.60
2007,07,05,13,57,22.50
2007,07,05,13,58,22.50
2007,07,05,13,59,22.40
2007,07,05,14,00,22.50
2007,07,05,14,01,22.50
2007,07,05,14,02,22.60
2007,07,05,14,03,22.70
2007,07,05,14,04,22.80
2007,07,05,14,05,22.90
2007,07,05,14,06,23.00
2007,07,05,14,07,23.00
2007,07,05,14,08,23.10
2007,07,05,14,09,23.10
2007,07,05,14,10,23.10
2007,07,05,14,11,23.20
2007,07,05,14,12,23.30
2007,07,05,14,13,23.40
2007,07,05,14,14,23.60
2007,07,05,14,15,23.70
2007,07,05,14,16,23.60
2007,07,05,14,17,23.60
2007,07,05,14,18,23.50
2007,07,05,14,19,23.50
2007,07,05,14,20,23.40
2007,07,05,14,21,23.50
2007,07,05,14,22,23.50
2007,07,05,14,23,23.60
2007,07,05,14,24,23.60
2007,07,05,14,25,23.60
2007,07,05,14,26,23.70
2007,07,05,14,27,23.70
2007,07,05,14,28,23.60
2007,07,05,14,29,23.60
2007,07,05,14,30,23.60
2007,07,05,14,31,23.70
2007,07,05,14,32,23.80
2007,07,05,14,33,24.00
2007,07,05,14,34,24.30
2007,07,05,14,35,24.40
2007,07,05,14,36,24.60
2007,07,05,14,37,24.80
2007,07,05,14,38,24.90
2007,07,05,14,39,25.00
2007,07,05,14,40,24.90
2007,07,05,14,41,24.90
2007,07,05,14,42,24.80
2007,07,05,14,43,24.80
2007,07,05,14,44,24.80
2007,07,05,14,45,24.80
2007,07,05,14,46,24.80
2007,07,05,14,47,24.80
2007,07,05,14,48,24.80
2007,07,05,14,49,24.80
2007,07,05,14,50,24.70
2007,07,05,14,51,24.80
2007,07,05,14,52,24.70
2007,07,05,14,53,24.70
2007,07,05,14,54,24.60
2007,07,05,14,55,24.60
2007,07,05,14,56,24.70
2007,07,05,14,57,24.70
2007,07,05,14,58,24.70
2007,07,05,14,59,24.80
2007,07,05,15,00,24.90
2007,07,05,15,01,24.90
2007,07,05,15,02,24.90
2007,07,05,15,03,24.90
2007,07,05,15,04,25.00
2007,07,05,15,05,25.10
2007,07,05,15,06,25.20
2007,07,05,15,07,25.20
2007,07,05,15,08,25.30
2007,07,05,15,09,25.30
2007,07,05,15,10,25.10
2007,07,05,15,11,24.90
2007,07,05,15,12,24.80
2007,07,05,15,13,24.80
2007,07,05,15,14,24.70
2007,07,05,15,15,24.70
2007,07,05,15,16,24.70
2007,07,05,15,17,24.70
2007,07,05,15,18,24.80
2007,07,05,15,19,24.90
2007,07,05,15,20,25.10
2007,07,05,15,21,25.20
2007,07,05,15,22,25.30
2007,07,05,15,23,25.30
2007,07,05,15,24,25.30
2007,07,05,15,25,25.20
2007,07,05,15,26,25.10
2007,07,05,15,27,25.00
2007,07,05,15,28,25.20
2007,07,05,15,29,25.30
2007,07,05,15,30,25.30
2007,07,05,15,31,25.40
2007,07,05,15,32,25.40
2007,07,05,15,33,25.50
2007,07,05,15,34,25.70
2007,07,05,15,35,25.70
2007,07,05,15,36,25.70
2007,07,05,15,37,25.70
2007,07,05,15,38,25.70
2007,07,05,15,39,25.70
2007,07,05,15,40,25.50
2007,07,05,15,41,25.50
2007,07,05,15,42,25.50
2007,07,05,15,43,25.60
2007,07,05,15,44,25.80
2007,07,05,15,45,25.90
2007,07,05,15,46,26.00
2007,07,05,15,47,26.10
2007,07,05,15,48,26.10
2007,07,05,15,49,26.00
2007,07,05,15,50,25.90
2007,07,05,15,51,25.90
2007,07,05,15,52,26.00
2007,07,05,15,53,26.00
2007,07,05,15,54,26.00
2007,07,05,15,55,26.10
2007,07,05,15,56,26.00
2007,07,05,15,57,26.10
2007,07,05,15,58,26.20
2007,07,05,15,59,26.30
2007,07,05,16,00,26.30
2007,07,05,16,01,26.40
2007,07,05,16,02,26.50
2007,07,05,16,03,26.50
2007,07,05,16,04,26.50
2007,07,05,16,05,26.60
2007,07,05,16,06,26.60
2007,07,05,16,07,26.70
2007,07,05,16,08,26.70
2007,07,05,16,09,26.70
2007,07,05,16,10,26.60
2007,07,05,16,11,26.50
